Time,TemperatureF,DewpointF,PressureIn,WindDirection,WindDirectionDegrees,WindSpeedMPH,WindSpeedGustMPH,Humidity,HourlyPrecipIn,Conditions,Clouds,dailyrainin,SoftwareType,DateUTC
2013-03-11 00:02:00,72.0,64.0,30.06,ESE,107,19.0,22.0,75,0.00,,,0.00,,2013-03-11 04:02:00,
2013-03-11 00:12:00,72.0,64.0,30.06,ESE,107,19.0,22.0,75,0.00,,,0.00,,2013-03-11 04:12:00,
2013-03-11 00:22:00,72.0,62.0,30.06,SE,132,20.0,23.0,72,0.00,,,0.00,,2013-03-11 04:22:00,
2013-03-11 00:32:00,72.0,63.0,30.06,SE,133,19.0,22.0,73,0.00,,,0.00,,2013-03-11 04:32:00,
2013-03-11 00:42:00,72.0,63.0,30.06,SE,133,19.0,22.0,73,0.00,,,0.00,,2013-03-11 04:42:00,
2013-03-11 00:53:00,72.0,65.0,30.05,ESE,107,21.0,26.0,78,0.00,,,0.00,,2013-03-11 04:53:00,
2013-03-11 01:03:00,72.0,63.0,30.06,ESE,123,16.0,26.0,73,0.00,,,0.00,,2013-03-11 05:03:00,
2013-03-11 01:12:00,72.0,63.0,30.06,ESE,123,16.0,26.0,73,0.00,,,0.00,,2013-03-11 05:12:00,
2013-03-11 01:22:00,72.0,61.0,30.05,SE,132,19.0,23.0,69,0.00,,,0.00,,2013-03-11 05:22:00,
2013-03-11 01:32:00,72.0,62.0,30.05,SE,125,17.0,23.0,71,0.00,,,0.00,,2013-03-11 05:32:00,
2013-03-11 01:43:00,72.0,62.0,30.05,SE,125,17.0,23.0,71,0.00,,,0.00,,2013-03-11 05:43:00,
2013-03-11 01:52:00,72.0,62.0,30.04,SE,134,18.0,21.0,72,0.00,,,0.00,,2013-03-11 05:52:00,
2013-03-11 02:02:00,72.0,63.0,30.04,ESE,123,15.0,20.0,74,0.00,,,0.00,,2013-03-11 06:02:00,
2013-03-11 02:12:00,72.0,63.0,30.04,ESE,123,15.0,20.0,74,0.00,,,0.00,,2013-03-11 06:12:00,
2013-03-11 02:22:00,72.0,64.0,30.04,SE,128,16.0,20.0,75,0.00,,,0.00,,2013-03-11 06:22:00,
2013-03-11 02:32:00,72.0,64.0,30.03,ESE,102,21.0,28.0,77,0.00,,,0.00,,2013-03-11 06:32:00,
2013-03-11 02:42:00,72.0,64.0,30.03,ESE,102,21.0,28.0,77,0.00,,,0.00,,2013-03-11 06:42:00,
2013-03-11 02:53:00,72.0,64.0,30.03,East,100,27.0,30.0,76,0.00,,,0.00,,2013-03-11 06:53:00,
2013-03-11 03:03:00,72.0,64.0,30.03,ESE,109,22.0,31.0,75,0.00,,,0.00,,2013-03-11 07:03:00,
2013-03-11 03:12:00,72.0,64.0,30.02,East,98,25.0,27.0,75,0.00,,,0.00,,2013-03-11 07:12:00,
2013-03-11 03:22:00,72.0,64.0,30.02,East,98,25.0,27.0,75,0.00,,,0.00,,2013-03-11 07:22:00,
2013-03-11 03:32:00,72.0,64.0,30.01,ESE,115,20.0,28.0,75,0.00,,,0.00,,2013-03-11 07:32:00,
2013-03-11 03:42:00,72.0,64.0,30.01,ESE,115,20.0,28.0,75,0.00,,,0.00,,2013-03-11 07:42:00,
2013-03-11 03:52:00,71.0,62.0,30.01,SE,130,21.0,26.0,74,0.00,,,0.00,,2013-03-11 07:52:00,
2013-03-11 04:02:00,71.0,62.0,30.00,ESE,119,21.0,27.0,74,0.00,,,0.00,,2013-03-11 08:02:00,
2013-03-11 04:12:00,71.0,62.0,30.00,ESE,119,21.0,27.0,74,0.00,,,0.00,,2013-03-11 08:12:00,
2013-03-11 04:22:00,71.0,62.0,29.99,ESE,114,21.0,27.0,73,0.00,,,0.00,,2013-03-11 08:22:00,
2013-03-11 04:32:00,71.0,62.0,29.99,SE,126,21.0,26.0,74,0.00,,,0.00,,2013-03-11 08:32:00,
2013-03-11 04:42:00,71.0,62.0,29.99,SE,126,21.0,26.0,74,0.00,,,0.00,,2013-03-11 08:42:00,
2013-03-11 04:52:00,71.0,62.0,29.99,East,98,18.0,25.0,74,0.00,,,0.00,,2013-03-11 08:52:00,
2013-03-11 05:02:00,71.0,62.0,29.98,ESE,115,20.0,25.0,73,0.00,,,0.00,,2013-03-11 09:02:00,
2013-03-11 05:12:00,71.0,62.0,29.98,ESE,115,20.0,25.0,73,0.00,,,0.00,,2013-03-11 09:12:00,
2013-03-11 05:23:00,71.0,62.0,29.98,SE,125,21.0,24.0,73,0.00,,,0.00,,2013-03-11 09:23:00,
2013-03-11 05:32:00,71.0,61.0,29.98,ESE,108,22.0,24.0,70,0.00,,,0.00,,2013-03-11 09:32:00,
2013-03-11 05:42:00,71.0,61.0,29.98,ESE,108,22.0,24.0,70,0.00,,,0.00,,2013-03-11 09:42:00,
2013-03-11 05:52:00,71.0,62.0,29.98,ESE,109,18.0,23.0,72,0.00,,,0.00,,2013-03-11 09:52:00,
2013-03-11 06:02:00,71.0,63.0,29.98,ESE,123,14.0,21.0,75,0.00,,,0.00,,2013-03-11 10:02:00,
2013-03-11 06:12:00,71.0,63.0,29.98,ESE,123,14.0,21.0,75,0.00,,,0.00,,2013-03-11 10:12:00,
2013-03-11 06:22:00,71.0,62.0,29.97,SE,131,16.0,19.0,74,0.00,,,0.00,,2013-03-11 10:22:00,
2013-03-11 06:32:00,71.0,62.0,29.97,SE,135,17.0,20.0,74,0.00,,,0.00,,2013-03-11 10:32:00,
2013-03-11 06:42:00,71.0,62.0,29.97,SE,135,17.0,20.0,74,0.00,,,0.00,,2013-03-11 10:42:00,
2013-03-11 06:52:00,71.0,63.0,29.98,ESE,120,15.0,21.0,75,0.00,,,0.00,,2013-03-11 10:52:00,
2013-03-11 07:02:00,71.0,62.0,29.97,SSE,157,13.0,20.0,73,0.00,,,0.00,,2013-03-11 11:02:00,
2013-03-11 07:12:00,71.0,62.0,29.97,SSE,157,13.0,20.0,73,0.00,,,0.00,,2013-03-11 11:12:00,
2013-03-11 07:22:00,71.0,62.0,29.98,ESE,114,18.0,21.0,73,0.00,,,0.00,,2013-03-11 11:22:00,
2013-03-11 07:32:00,71.0,63.0,29.98,East,90,14.0,20.0,75,0.00,,,0.00,,2013-03-11 11:32:00,
2013-03-11 07:42:00,71.0,63.0,29.98,East,90,14.0,20.0,75,0.00,,,0.00,,2013-03-11 11:42:00,
2013-03-11 07:53:00,71.0,62.0,29.98,SE,127,18.0,20.0,72,0.00,,,0.00,,2013-03-11 11:53:00,
2013-03-11 08:02:00,71.0,62.0,29.98,SE,128,15.0,22.0,74,0.00,,,0.00,,2013-03-11 12:02:00,
2013-03-11 08:12:00,71.0,62.0,29.98,SE,128,15.0,22.0,74,0.00,,,0.00,,2013-03-11 12:12:00,
2013-03-11 08:22:00,72.0,63.0,29.99,SE,130,18.0,23.0,74,0.00,,,0.00,,2013-03-11 12:22:00,
2013-03-11 08:32:00,72.0,64.0,30.00,SE,138,14.0,22.0,75,0.00,,,0.00,,2013-03-11 12:32:00,
2013-03-11 08:53:00,72.0,63.0,30.01,SSE,147,14.0,22.0,73,0.00,,,0.00,,2013-03-11 12:53:00,
2013-03-11 09:02:00,72.0,64.0,30.01,SE,131,18.0,21.0,75,0.00,,,0.00,,2013-03-11 13:02:00,
2013-03-11 09:12:00,72.0,64.0,30.01,SE,131,18.0,21.0,75,0.00,,,0.00,,2013-03-11 13:12:00,
2013-03-11 09:22:00,72.0,64.0,30.01,SSE,152,16.0,21.0,75,0.00,,,0.00,,2013-03-11 13:22:00,
2013-03-11 09:32:00,72.0,64.0,30.01,SE,130,16.0,22.0,75,0.00,,,0.00,,2013-03-11 13:32:00,
2013-03-11 09:42:00,72.0,64.0,30.01,SE,130,16.0,22.0,75,0.00,,,0.00,,2013-03-11 13:42:00,
2013-03-11 09:53:00,72.0,63.0,30.02,SE,132,19.0,22.0,74,0.00,,,0.00,,2013-03-11 13:53:00,
2013-03-11 10:02:00,72.0,64.0,30.02,SE,125,19.0,23.0,76,0.00,,,0.00,,2013-03-11 14:02:00,
2013-03-11 10:12:00,72.0,64.0,30.02,SE,125,19.0,23.0,76,0.00,,,0.00,,2013-03-11 14:12:00,
2013-03-11 10:22:00,72.0,64.0,30.02,SE,124,16.0,22.0,77,0.00,,,0.00,,2013-03-11 14:22:00,
2013-03-11 10:33:00,72.0,64.0,30.02,SE,138,14.0,22.0,76,0.00,,,0.00,,2013-03-11 14:33:00,
2013-03-11 10:42:00,72.0,64.0,30.02,SE,138,14.0,22.0,76,0.00,,,0.00,,2013-03-11 14:42:00,
2013-03-11 10:53:00,73.0,65.0,30.02,SE,130,19.0,24.0,76,0.00,,,0.00,,2013-03-11 14:53:00,
2013-03-11 11:02:00,72.0,64.0,30.02,SE,136,17.0,22.0,76,0.00,,,0.00,,2013-03-11 15:02:00,
2013-03-11 11:13:00,72.0,64.0,30.02,SE,136,17.0,22.0,76,0.00,,,0.00,,2013-03-11 15:13:00,
2013-03-11 11:22:00,73.0,65.0,30.03,SE,143,14.0,21.0,77,0.00,,,0.00,,2013-03-11 15:22:00,
2013-03-11 11:32:00,73.0,64.0,30.02,SE,130,19.0,22.0,74,0.00,,,0.00,,2013-03-11 15:32:00,
2013-03-11 11:42:00,73.0,64.0,30.02,SE,130,19.0,22.0,74,0.00,,,0.00,,2013-03-11 15:42:00,
2013-03-11 11:53:00,73.0,65.0,30.02,SE,131,21.0,25.0,76,0.00,,,0.00,,2013-03-11 15:53:00,
2013-03-11 12:02:00,73.0,66.0,30.02,SE,125,16.0,25.0,78,0.00,,,0.00,,2013-03-11 16:02:00,
2013-03-11 12:12:00,73.0,66.0,30.02,SE,125,16.0,25.0,78,0.00,,,0.00,,2013-03-11 16:12:00,
2013-03-11 12:22:00,73.0,66.0,30.02,SE,144,18.0,26.0,79,0.00,,,0.00,,2013-03-11 16:22:00,
2013-03-11 12:32:00,73.0,66.0,30.01,ESE,123,23.0,26.0,78,0.00,,,0.00,,2013-03-11 16:32:00,
2013-03-11 12:43:00,73.0,66.0,30.01,ESE,123,23.0,26.0,78,0.00,,,0.00,,2013-03-11 16:43:00,
2013-03-11 12:52:00,73.0,66.0,30.01,SE,134,17.0,22.0,79,0.00,,,0.00,,2013-03-11 16:52:00,
2013-03-11 13:02:00,73.0,66.0,30.01,SE,130,22.0,26.0,78,0.00,,,0.00,,2013-03-11 17:02:00,
2013-03-11 13:15:00,73.0,66.0,30.01,SE,130,22.0,26.0,78,0.00,,,0.00,,2013-03-11 17:15:00,
2013-03-11 13:27:00,73.0,66.0,30.01,ESE,117,19.0,23.0,79,0.00,,,0.00,,2013-03-11 17:27:00,
2013-03-11 13:42:00,73.0,66.0,30.01,SE,132,18.0,23.0,78,0.00,,,0.00,,2013-03-11 17:42:00,
2013-03-11 13:53:00,73.0,66.0,30.00,SE,134,20.0,24.0,78,0.00,,,0.00,,2013-03-11 17:53:00,
2013-03-11 14:02:00,73.0,66.0,29.99,SE,132,20.0,24.0,79,0.00,,,0.00,,2013-03-11 18:02:00,
2013-03-11 14:12:00,73.0,66.0,29.99,SE,132,20.0,24.0,79,0.00,,,0.00,,2013-03-11 18:12:00,
2013-03-11 14:23:00,73.0,66.0,29.99,SE,132,20.0,23.0,79,0.00,,,0.00,,2013-03-11 18:23:00,
2013-03-11 14:32:00,73.0,66.0,29.99,ESE,104,19.0,23.0,79,0.00,,,0.00,,2013-03-11 18:32:00,
2013-03-11 14:42:00,73.0,66.0,29.99,ESE,104,19.0,23.0,79,0.00,,,0.00,,2013-03-11 18:42:00,
2013-03-11 14:53:00,73.0,67.0,29.99,ESE,115,15.0,23.0,81,0.00,,,0.00,,2013-03-11 18:53:00,
2013-03-11 15:02:00,73.0,67.0,29.99,ESE,104,16.0,21.0,81,0.00,,,0.00,,2013-03-11 19:02:00,
2013-03-11 15:12:00,73.0,67.0,29.99,ESE,104,16.0,21.0,81,0.00,,,0.00,,2013-03-11 19:12:00,
2013-03-11 15:23:00,73.0,67.0,29.99,ESE,104,11.0,15.0,81,0.00,,,0.00,,2013-03-11 19:23:00,
2013-03-11 15:33:00,73.0,67.0,29.99,SE,135,7.0,13.0,81,0.00,,,0.00,,2013-03-11 19:33:00,
2013-03-11 15:42:00,73.0,67.0,29.99,SE,135,7.0,13.0,81,0.00,,,0.00,,2013-03-11 19:42:00,
2013-03-11 15:53:00,75.0,67.0,29.98,SE,136,10.0,14.0,77,0.00,,,0.00,,2013-03-11 19:53:00,
2013-03-11 16:02:00,75.0,67.0,29.98,SSE,154,11.0,14.0,76,0.00,,,0.00,,2013-03-11 20:02:00,
2013-03-11 16:12:00,75.0,67.0,29.98,SSE,154,11.0,14.0,76,0.00,,,0.00,,2013-03-11 20:12:00,
2013-03-11 16:22:00,75.0,68.0,29.97,SE,130,15.0,19.0,79,0.00,,,0.00,,2013-03-11 20:22:00,
2013-03-11 16:32:00,74.0,68.0,29.97,SE,140,12.0,18.0,82,0.00,,,0.00,,2013-03-11 20:32:00,
2013-03-11 16:43:00,74.0,68.0,29.97,SE,140,12.0,18.0,82,0.00,,,0.00,,2013-03-11 20:43:00,
2013-03-11 16:53:00,74.0,68.0,29.97,ESE,122,10.0,14.0,81,0.00,,,0.00,,2013-03-11 20:53:00,
2013-03-11 17:03:00,74.0,68.0,29.96,SE,140,10.0,14.0,81,0.00,,,0.00,,2013-03-11 21:03:00,
2013-03-11 17:13:00,74.0,68.0,29.96,SE,140,10.0,14.0,81,0.00,,,0.00,,2013-03-11 21:13:00,
2013-03-11 17:22:00,73.0,67.0,29.96,ESE,113,11.0,13.0,81,0.00,,,0.00,,2013-03-11 21:22:00,
2013-03-11 17:32:00,73.0,67.0,29.95,SE,137,10.0,14.0,82,0.00,,,0.00,,2013-03-11 21:32:00,
2013-03-11 17:44:00,73.0,67.0,29.95,SE,137,10.0,14.0,82,0.00,,,0.00,,2013-03-11 21:44:00,
2013-03-11 17:53:00,74.0,66.0,29.94,SE,134,12.0,16.0,77,0.00,,,0.00,,2013-03-11 21:53:00,
2013-03-11 18:03:00,74.0,66.0,29.94,ESE,123,11.0,15.0,77,0.00,,,0.00,,2013-03-11 22:03:00,
2013-03-11 18:12:00,74.0,66.0,29.94,ESE,123,11.0,15.0,77,0.00,,,0.00,,2013-03-11 22:12:00,
2013-03-11 18:22:00,74.0,66.0,29.93,SE,134,15.0,19.0,76,0.00,,,0.00,,2013-03-11 22:22:00,
2013-03-11 18:32:00,74.0,66.0,29.92,SE,135,16.0,20.0,77,0.00,,,0.00,,2013-03-11 22:32:00,
2013-03-11 18:43:00,74.0,66.0,29.92,SE,135,16.0,20.0,77,0.00,,,0.00,,2013-03-11 22:43:00,
2013-03-11 18:53:00,74.0,65.0,29.94,SE,144,16.0,20.0,74,0.00,,,0.00,,2013-03-11 22:53:00,
2013-03-11 19:03:00,74.0,66.0,29.94,SSE,152,12.0,18.0,77,0.00,,,0.00,,2013-03-11 23:03:00,
2013-03-11 19:12:00,74.0,66.0,29.94,SSE,152,12.0,18.0,77,0.00,,,0.00,,2013-03-11 23:12:00,
2013-03-11 19:22:00,74.0,66.0,29.95,SE,143,13.0,16.0,76,0.00,,,0.00,,2013-03-11 23:22:00,
2013-03-11 19:32:00,74.0,67.0,29.94,SE,138,12.0,18.0,78,0.00,,,0.00,,2013-03-11 23:32:00,
2013-03-11 19:43:00,74.0,67.0,29.94,SE,138,12.0,18.0,78,0.00,,,0.00,,2013-03-11 23:43:00,
2013-03-11 19:53:00,73.0,66.0,29.94,SE,136,13.0,18.0,80,0.00,,,0.00,,2013-03-11 23:53:00,
2013-03-11 20:02:00,73.0,66.0,29.94,SE,136,16.0,19.0,79,0.00,,,0.00,,2013-03-12 00:02:00,
2013-03-11 20:12:00,73.0,66.0,29.94,SE,136,16.0,19.0,79,0.00,,,0.00,,2013-03-12 00:12:00,
2013-03-11 20:23:00,73.0,66.0,29.94,SSE,148,14.0,18.0,79,0.00,,,0.00,,2013-03-12 00:23:00,
2013-03-11 20:33:00,73.0,66.0,29.94,ESE,123,17.0,21.0,78,0.00,,,0.00,,2013-03-12 00:33:00,
2013-03-11 20:42:00,73.0,66.0,29.94,ESE,123,17.0,21.0,78,0.00,,,0.00,,2013-03-12 00:42:00,
2013-03-11 20:54:00,73.0,66.0,29.95,SE,130,15.0,20.0,79,0.00,,,0.00,,2013-03-12 00:54:00,
2013-03-11 21:02:00,73.0,66.0,29.95,SE,125,19.0,21.0,79,0.00,,,0.00,,2013-03-12 01:02:00,
2013-03-11 21:12:00,73.0,66.0,29.95,SE,125,19.0,21.0,79,0.00,,,0.00,,2013-03-12 01:12:00,
2013-03-11 21:22:00,73.0,66.0,29.95,SE,135,19.0,22.0,79,0.00,,,0.00,,2013-03-12 01:22:00,
2013-03-11 21:33:00,73.0,66.0,29.95,SE,132,20.0,23.0,78,0.00,,,0.00,,2013-03-12 01:33:00,
2013-03-11 21:42:00,73.0,66.0,29.95,SE,132,20.0,23.0,78,0.00,,,0.00,,2013-03-12 01:42:00,
2013-03-11 21:53:00,73.0,66.0,29.96,SE,126,15.0,19.0,79,0.00,,,0.00,,2013-03-12 01:53:00,
2013-03-11 22:02:00,73.0,66.0,29.96,SE,142,14.0,20.0,80,0.00,,,0.00,,2013-03-12 02:02:00,
2013-03-11 22:12:00,73.0,66.0,29.96,SE,142,14.0,20.0,80,0.00,,,0.00,,2013-03-12 02:12:00,
2013-03-11 22:22:00,73.0,66.0,29.97,SSE,150,15.0,19.0,79,0.00,,,0.00,,2013-03-12 02:22:00,
2013-03-11 22:32:00,73.0,66.0,29.97,SE,135,15.0,19.0,79,0.00,,,0.00,,2013-03-12 02:32:00,
2013-03-11 22:42:00,73.0,66.0,29.97,SE,135,15.0,19.0,79,0.00,,,0.00,,2013-03-12 02:42:00,
2013-03-11 22:52:00,73.0,66.0,29.98,SE,143,15.0,19.0,79,0.00,,,0.00,,2013-03-12 02:52:00,
2013-03-11 23:02:00,73.0,66.0,29.98,SE,127,13.0,19.0,79,0.00,,,0.00,,2013-03-12 03:02:00,
2013-03-11 23:12:00,73.0,66.0,29.98,SE,127,13.0,19.0,79,0.00,,,0.00,,2013-03-12 03:12:00,
2013-03-11 23:22:00,73.0,66.0,29.98,SE,132,13.0,16.0,80,0.00,,,0.00,,2013-03-12 03:22:00,
2013-03-11 23:32:00,73.0,66.0,29.98,SSE,148,12.0,18.0,80,0.00,,,0.00,,2013-03-12 03:32:00,
2013-03-11 23:42:00,73.0,66.0,29.98,SSE,148,12.0,18.0,80,0.00,,,0.00,,2013-03-12 03:42:00,
2013-03-11 23:53:00,73.0,66.0,29.98,SSE,148,14.0,20.0,79,0.00,,,0.00,,2013-03-12 03:53:00,